Milan, NH

5:46 PM EDT on August 23, 2016 (GMT -0400)
Berlin Municipal

Weather History for KBML - January, 2000

Change the Weather History Date:

Saturday, January 1, 2000

  Actual Average Record
Temperature  
Mean Temperature 16 °F -  
Max Temperature 33 °F 25 °F 48 °F (2005)
Min Temperature 0 °F 5 °F -18 °F (1998)
Degree Days  
Heating Degree Days 48    
Moisture  
Dew Point 8 °F    
Average Humidity 80    
Maximum Humidity 92    
Minimum Humidity 59    
Precipitation  
Precipitation 0.05 in - - ()
Sea Level Pressure  
Sea Level Pressure 30.17 in    
Wind  
Wind Speed 0 mph (South)    
Max Wind Speed 5 mph    
Max Gust Speed -    
Visibility 9 miles    
Events      
Averages and records for this station are not official NWS values.
T = Trace of Precipitation, MM = Missing Value Source: NWS Daily Summary

Daily Weather History Graph

Daily Weather History Graph

Search for Another Location

Airport or City:

Trip Planner

Search our weather history database for the weather conditions in past years. The results will help you decide how hot, cold, wet, or windy it might be!

Date:

Astronomy

Jan. 01, 2000 Rise Set
Actual Time 7:21 AM EST 4:14 PM EST
Civil Twilight 6:48 AM EST 4:48 PM EST
Nautical Twilight 6:11 AM EST 5:25 PM EST
Astronomical Twilight 5:35 AM EST 6:00 PM EST
Moon 2:26 AM EST (1/1) 1:15 PM EST (1/1)
Length of Visible Light 10h 00m
Length of Day
8h 53m
Waning Crescent, 21% of the Moon is Illuminated
Jan 1
Waning Crescent
Jan 6
New
Jan 14
First Quarter
Jan 20
Full
Jan 28
Last Quarter

Hourly Weather History & Observations

Time (EST) Temp. Windchill Dew Point Humidity Pressure Visibility Wind Dir Wind Speed Gust Speed Precip Events Conditions
12:52 AM -0.0 °F - -5.1 °F 79% 30.17 in 10.0 mi Calm Calm - N/A   Overcast
1:52 AM 1.0 °F - -2.0 °F 87% 30.19 in 10.0 mi Calm Calm - N/A   Overcast
2:10 AM 1.4 °F - -0.4 °F 92% 30.12 in 10.0 mi Calm Calm - N/A   Overcast
2:52 AM 3.9 °F - 1.0 °F 88% 30.20 in 10.0 mi Calm Calm - N/A   Overcast
3:32 AM 5.0 °F - 1.4 °F 85% 30.12 in 9.0 mi Calm Calm - N/A   Overcast
3:52 AM 6.1 °F - 1.9 °F 83% 30.21 in 10.0 mi Calm Calm - N/A   Overcast
4:52 AM 7.0 °F - 1.9 °F 80% 30.21 in 10.0 mi Calm Calm - N/A   Overcast
5:52 AM 8.1 °F - 3.0 °F 80% 30.21 in 10.0 mi Calm Calm - N/A   Overcast
6:52 AM 10.0 °F - 3.9 °F 76% 30.22 in 10.0 mi Calm Calm - N/A   Overcast
7:52 AM 10.9 °F - 5.0 °F 77% 30.25 in 10.0 mi Calm Calm - N/A   Overcast
8:52 AM 12.0 °F - 6.1 °F 77% 30.23 in 10.0 mi Calm Calm - N/A   Overcast
9:52 AM 15.1 °F - 7.0 °F 70% 30.21 in 10.0 mi Calm Calm - N/A   Mostly Cloudy
10:52 AM 19.0 °F - 10.0 °F 68% 30.20 in 9.0 mi Calm Calm - N/A   Overcast
11:52 AM 21.0 °F - 10.9 °F 65% 30.17 in 10.0 mi Calm Calm - N/A   Mostly Cloudy
12:52 PM 27.0 °F - 15.1 °F 61% 30.12 in 10.0 mi Calm Calm - 0.03 in   Mostly Cloudy
1:52 PM 32.0 °F 27.5 °F 19.0 °F 59% 30.09 in 10.0 mi North 4.6 mph - 0.01 in   Clear
2:52 PM 33.1 °F - 21.0 °F 61% 30.10 in 10.0 mi Calm Calm - 0.01 in   Partly Cloudy
3:52 PM 30.0 °F - 21.0 °F 69% 30.10 in 10.0 mi Calm Calm - N/A   Mostly Cloudy
4:52 PM 23.0 °F - 19.0 °F 85% 30.12 in 10.0 mi Calm Calm - N/A   Clear
5:52 PM 19.9 °F - 17.1 °F 89% 30.14 in 9.0 mi Calm Calm - N/A   Clear
6:52 PM 17.1 °F - 15.1 °F 92% 30.17 in 7.0 mi Calm Calm - N/A   Clear
7:52 PM 15.1 °F - 12.9 °F 91% 30.18 in 6.0 mi Calm Calm - N/A   Clear
8:52 PM 10.9 °F - 9.0 °F 92% 30.19 in 5.0 mi Calm Calm - N/A   Mostly Cloudy
9:41 PM 10.4 °F - 6.8 °F 85% 30.12 in 7.0 mi Calm Calm - N/A   Partly Cloudy
9:52 PM 10.0 °F - 7.0 °F 87% 30.19 in 3.0 mi Calm Calm - N/A   Partly Cloudy
10:52 PM 10.0 °F - 7.0 °F 87% 30.20 in 8.0 mi Calm Calm - N/A   Clear
11:52 PM 10.0 °F - 6.1 °F 84% 30.20 in 8.0 mi Calm Calm - N/A   Clear